CDT,Max TemperatureF,Mean TemperatureF,Min TemperatureF,Max Dew PointF,MeanDew PointF,Min DewpointF,Max Humidity, Mean Humidity, Min Humidity, Max Sea Level PressureIn, Mean Sea Level PressureIn, Min Sea Level PressureIn, Max VisibilityMiles, Mean VisibilityMiles, Min VisibilityMiles, Max Wind SpeedMPH, Mean Wind SpeedMPH, Max Gust SpeedMPH,PrecipitationIn, CloudCover, Events, WindDirDegrees
2012-9-1,96,80,63,49,42,34,52,33,13,30.01,29.95,29.89,10,10,10,17,8,22,0.00,0,,196
2012-9-2,99,83,66,55,50,46,58,38,17,30.07,29.88,29.82,10,10,10,22,12,29,0.00,0,,196
2012-9-3,98,85,71,60,54,48,61,41,20,30.04,29.86,29.80,10,10,10,15,9,36,0.00,0,,188
2012-9-4,100,85,69,63,55,48,66,42,18,30.00,29.86,29.74,10,10,8,22,9,25,T,2,Rain-Thunderstorm,197
2012-9-5,99,83,66,67,62,55,87,56,25,30.08,29.88,29.76,10,8,1,38,8,46,0.64,4,Rain-Thunderstorm,141
2012-9-6,92,78,63,64,61,58,93,64,34,30.09,29.91,29.79,10,10,5,25,10,31,0.02,1,Rain-Thunderstorm,172
2012-9-7,85,74,62,64,56,49,78,60,41,30.14,29.92,29.78,10,10,10,32,19,39,T,2,,360
2012-9-8,79,69,58,51,44,36,75,49,22,30.30,30.20,30.12,10,10,10,16,7,21,0.00,2,,22
2012-9-9,86,71,56,48,39,30,67,41,14,30.25,30.12,30.05,10,10,10,15,6,18,0.00,0,,217
2012-9-10,88,71,53,47,43,39,66,44,21,30.09,30.00,29.90,10,10,10,23,13,33,0.00,0,,186
2012-9-11,95,80,65,45,41,37,37,27,16,29.94,29.85,29.76,10,10,10,29,20,35,0.00,0,,177
2012-9-12,88,72,55,64,51,43,72,49,26,30.12,29.91,29.81,10,10,6,29,14,37,0.08,4,Rain-Thunderstorm,195
2012-9-13,60,55,50,52,50,46,96,84,72,30.42,30.28,30.10,10,8,2,28,19,35,0.51,7,Rain,10
2012-9-14,67,57,46,52,43,34,93,61,29,30.38,30.33,30.25,10,10,10,20,12,25,0.00,5,,6
2012-9-15,72,60,47,51,43,37,89,60,31,30.33,30.17,30.08,10,10,10,12,6,14,0.00,1,,229
2012-9-16,83,64,45,52,42,33,93,56,18,30.10,29.98,29.90,10,10,5,13,5,17,0.00,0,,180
2012-9-17,77,64,50,51,46,41,93,62,31,30.05,29.91,29.83,10,10,10,24,13,30,T,0,,13
2012-9-18,79,63,47,48,43,34,93,59,25,30.18,30.09,30.01,10,10,10,20,8,25,0.00,1,Thunderstorm,173
2012-9-19,93,74,54,51,46,36,83,49,15,30.03,29.96,29.86,10,10,10,24,10,29,0.00,0,,193
2012-9-20,90,74,57,47,43,38,62,40,18,30.07,29.91,29.82,10,10,7,17,8,25,0.00,0,,172
2012-9-21,92,73,54,52,44,38,67,42,16,29.96,29.91,29.86,10,10,10,22,9,26,0.00,0,,60
2012-9-22,93,74,55,50,44,34,72,43,13,30.15,30.01,29.94,10,10,10,18,8,23,0.00,0,,111
2012-9-23,94,73,52,43,38,30,63,37,11,30.15,30.05,29.96,10,10,10,29,17,35,0.00,0,,165
2012-9-24,90,77,64,54,43,35,56,36,16,29.99,29.89,29.78,10,10,10,26,18,35,0.00,0,,204
2012-9-25,92,76,60,47,39,30,56,34,11,29.91,29.76,29.67,10,10,10,28,12,31,0.00,0,,226
2012-9-26,86,73,60,57,48,41,72,48,23,29.98,29.89,29.76,10,10,10,20,9,24,0.00,1,,20
2012-9-27,72,65,57,61,57,53,97,79,61,30.24,30.09,29.95,10,10,4,25,9,30,0.39,4,Rain-Thunderstorm,136
2012-9-28,71,64,57,61,59,55,100,84,68,30.20,30.11,30.02,10,8,0,22,7,25,0.50,7,Rain-Thunderstorm,98
2012-9-29,70,64,57,61,58,55,100,81,61,30.17,30.08,29.97,10,6,0,14,5,16,1.00,6,Fog-Rain-Thunderstorm,113
2012-9-30,78,66,53,59,54,49,100,69,38,30.11,30.01,29.88,10,6,0,39,4,47,0.11,4,Fog-Rain-Thunderstorm,253